Location: Berg
(47.2344°N, 9.5296°E)
Time: 18:57:53
(UTC+00:00)

Cosmos 44 - Visible Passes

Search period start: 01 December 2021 00:00
Search period end: 11 December 2021 00:00
Orbit: 579 x 782 km, 65.1° (Epoch: 01 December)

Date Brightness Start Highest point End Pass type
(mag) Time Alt. Az. Time Alt. Az. Time Alt. Az.
01 Dec 4.1 16:57:17 10° NW 17:01:55 50° WSW 17:06:15 10° SSE visible
02 Dec 6.1 17:35:27 10° WNW 17:38:35 18° WSW 17:41:37 10° SSW visible
03 Dec 4.4 16:30:27 10° NW 16:35:01 46° WSW 16:39:18 10° SSE visible
04 Dec 6.3 17:08:45 10° WNW 17:11:40 16° WSW 17:14:28 10° SSW visible
05 Dec 6.7 05:51:33 10° SE 05:54:48 16° ESE 05:58:00 10° ENE visible
05 Dec 4.7 16:03:38 10° NW 16:08:07 42° WSW 16:12:20 10° S visible
06 Dec 6.6 16:42:05 10° WNW 16:44:43 15° WSW 16:47:17 10° SW visible
07 Dec 6.6 05:24:23 10° SSE 05:27:53 18° ESE 05:31:19 10° ENE visible
08 Dec 4.9 05:59:32 10° S 06:04:36 44° ESE 06:09:33 10° NE visible
08 Dec 6.6 16:15:28 10° WNW 16:17:48 14° WSW 16:20:03 10° SW visible
09 Dec 6.4 04:57:17 10° SSE 05:00:58 19° ESE 05:04:36 10° ENE visible
10 Dec 4.6 05:32:36 10° SSW 05:37:44 47° ESE 05:42:43 10° NE visible
